Location: *
(51.0333°S, 178.4667°E)
Time: 03:34:53
(UTC+00:00)

STARLINK-21 - Visible Passes

Search period start: 28 February 2020 00:00
Search period end: 09 March 2020 00:00
Orbit: 528 x 531 km, 53.0° (Epoch: 27 February)

Date Brightness Start Highest point End Pass type
(mag) Time Alt. Az. Time Alt. Az. Time Alt. Az.
28 Feb 5.7 14:54:59 16° NE 14:55:11 16° NE 14:57:42 10° E visible
28 Feb 3.9 16:30:14 14° NW 16:33:41 59° NNE 16:37:45 10° ESE visible
29 Feb 5.6 14:43:35 18° NE 14:43:35 18° NE 14:46:00 10° E visible
29 Feb 3.7 16:18:49 18° NW 16:21:44 66° NNE 16:25:49 10° ESE visible
01 Mar 5.6 14:32:10 19° ENE 14:32:10 19° ENE 14:34:16 10° E visible
01 Mar 3.6 16:07:25 24° WNW 16:09:48 73° NNE 16:13:55 10° ESE visible
02 Mar 5.7 14:20:46 19° ENE 14:20:46 19° ENE 14:22:32 10° E visible
02 Mar 3.5 15:56:01 31° WNW 15:57:56 80° NNE 16:02:04 10° ESE visible
03 Mar 5.9 14:09:23 18° E 14:09:23 18° E 14:10:48 10° E visible
03 Mar 3.5 15:44:38 39° WNW 15:46:06 86° NNE 15:50:14 10° ESE visible
04 Mar 6.0 13:58:02 16° E 13:58:02 16° E 13:59:05 10° E visible
04 Mar 3.5 15:33:16 50° WNW 15:34:18 88° SSW 15:38:27 10° ESE visible
05 Mar 6.2 13:46:42 14° E 13:46:42 14° E 13:47:24 10° ESE visible
05 Mar 3.5 15:21:57 63° W 15:22:34 82° SSW 15:26:43 10° ESE visible
05 Mar 3.9 16:57:49 10° WSW 17:01:57 67° S 17:06:04 10° E visible
06 Mar 6.5 13:35:25 12° ESE 13:35:25 12° ESE 13:35:44 10° ESE visible
06 Mar 3.5 15:10:40 75° SW 15:10:51 78° SSW 15:15:00 10° ESE visible
06 Mar 3.9 16:46:08 10° WSW 16:50:15 69° S 16:54:23 10° E visible
07 Mar 3.8 14:59:27 70° SSE 14:59:27 70° SSE 15:03:21 10° ESE visible
07 Mar 3.8 16:34:43 11° WSW 16:38:37 72° S 16:42:44 10° E visible
08 Mar 4.2 14:48:19 56° SE 14:48:19 56° SE 14:51:44 10° ESE visible
08 Mar 3.7 16:23:34 15° WSW 16:27:00 75° SSE 16:31:08 10° E visible
